EW1423 Weather Reports


Display with metric or nautical units.
time (UTC)temp
F
wind
direction
speed
MPH
gust
MPH
rain 1hr
in
rain 24hr
in
rain mn
in
humidity
%
barometer
mb
20260503173303 71 355 0.0 2.0 0.00 0.00 0.00 56 1012.7
20260503172805 71 266 0.0 1.0 0.00 0.00 0.00 55 1012.7
20260503171804 71 270 1.0 3.0 0.00 0.00 0.00 54 1012.7
20260503171303 72 295 1.0 3.0 0.00 0.00 0.00 54 1012.7
20260503170803 72 292 0.0 2.0 0.00 0.00 0.00 55 1012.7
20260503150304 77 213 0.0 2.0 0.00 0.00 0.00 40 1012.4
20260503140304 81 286 1.0 2.0 0.00 0.00 0.00 36 1012.9
20260503130303 79 115 0.0 2.0 0.00 0.00 0.00 35 1014.0
20260503110804 79 95 2.0 6.0 0.00 0.00 0.00 41 1014.6
20260503090303 72 296 1.0 5.0 0.00 0.00 0.00 50 1015.9
20260503081304 68 111 1.0 3.0 0.00 0.00 0.00 58 1016.2
20260503080803 68 157 1.0 3.0 0.00 0.00 0.00 57 1016.2
20260503080303 68 183 0.0 1.0 0.00 0.00 0.00 59 1016.2
20260503072305 63 183 1.0 2.0 0.00 0.00 0.00 60 1015.9
20260503071804 63 184 1.0 3.0 0.00 0.00 0.00 61 1015.9
20260503070804 62 145 0.0 2.0 0.00 0.00 0.00 63 1016.0
20260503070303 61 145 0.0 2.0 0.00 0.00 0.00 64 1016.0
20260503060303 56 139 1.0 3.0 0.00 0.00 0.00 74 1016.0
20260503054803 54 127 1.0 2.0 0.00 0.00 0.00 80 1016.0
20260503054303 53 146 0.0 1.0 0.00 0.00 0.00 82 1016.0
20260503053804 52 146 1.0 2.0 0.00 0.00 0.00 82 1016.0
20260503053304 51 148 0.0 2.0 0.00 0.00 0.00 84 1016.0
20260503052803 51 181 0.0 1.0 0.00 0.00 0.00 85 1016.0
20260503052305 50 181 0.0 3.0 0.00 0.00 0.00 85 1016.0
20260503051804 50 127 1.0 5.0 0.00 0.00 0.00 86 1016.0
20260503050804 49 163 1.0 5.0 0.00 0.00 0.00 89 1016.0
20260503045811 48 152 1.0 5.0 0.00 0.00 0.00 90 1016.0
20260503045305 48 155 0.0 3.0 0.00 0.00 0.00 91 1016.0
20260503044804 48 125 1.0 2.0 0.00 0.00 0.00 91 1016.0
20260503044304 47 125 0.0 2.0 0.00 0.00 0.00 92 1016.0
20260503043803 47 126 0.0 1.0 0.00 0.00 0.00 92 1016.0
20260503042804 47 126 0.0 0.0 0.00 0.00 0.00 93 1016.0
20260503042305 47 126 0.0 1.0 0.00 0.00 0.00 93 1016.0
20260503041804 46 126 0.0 0.0 0.00 0.00 0.00 94 1016.0
20260503041303 46 126 0.0 0.0 0.00 0.00 0.00 94 1016.0
20260503040803 46 126 0.0 0.0 0.00 0.00 0.00 94 1016.0
20260503035803 46 126 0.0 0.0 0.00 0.00 0.00 93 1016.0
20260503034304 46 126 0.0 0.0 0.00 0.00 0.00 93 1016.0
20260503033304 47 126 0.0 0.0 0.00 0.00 0.00 92 1016.0
20260503032803 47 126 0.0 1.0 0.00 0.00 0.00 93 1016.2
20260503032305 47 126 0.0 0.0 0.00 0.00 0.00 92 1016.2
20260503031304 47 126 0.0 0.0 0.00 0.00 0.00 90 1015.9
20260503030803 48 126 0.0 0.0 0.00 0.00 0.00 90 1015.9
20260503030304 48 126 0.0 0.0 0.00 0.00 0.00 89 1015.9
20260503025319 49 126 0.0 0.0 0.00 0.00 0.00 88 1015.9
20260503024804 49 126 0.0 0.0 0.00 0.00 0.00 88 1015.9
20260503024303 49 126 0.0 1.0 0.00 0.00 0.00 87 1015.9
20260503023303 49 74 0.0 2.0 0.00 0.00 0.00 87 1016.1
20260503022803 49 74 1.0 2.0 0.00 0.00 0.00 88 1016.1
20260503022305 49 74 0.0 3.0 0.00 0.00 0.00 88 1016.1
20260503021803 49 109 0.0 5.0 0.00 0.00 0.00 88 1016.1
20260503021304 49 143 0.0 1.0 0.00 0.00 0.00 89 1016.1
20260503020803 49 143 0.0 2.0 0.00 0.00 0.00 88 1016.1
20260503020304 49 143 0.0 1.0 0.00 0.00 0.00 88 1016.1
20260503015305 49 137 1.0 2.0 0.00 0.00 0.00 87 1016.1
20260503014803 49 137 0.0 1.0 0.00 0.00 0.00 87 1016.1
20260503014303 49 137 1.0 2.0 0.00 0.00 0.00 87 1016.0
20260503013804 49 151 0.0 1.0 0.00 0.00 0.00 87 1016.0
20260503013303 49 153 0.0 1.0 0.00 0.00 0.00 87 1016.0
20260503012803 49 153 0.0 0.0 0.00 0.00 0.00 87 1016.0
20260503012305 49 153 0.0 1.0 0.00 0.00 0.00 87 1016.0
20260503011804 49 153 0.0 0.0 0.00 0.00 0.00 88 1016.0
20260503011304 49 153 0.0 0.0 0.00 0.00 0.00 87 1016.0
20260503010803 49 153 0.0 1.0 0.00 0.00 0.00 87 1016.0
20260503010303 50 153 0.0 0.0 0.00 0.00 0.00 86 1016.0
20260503005804 50 153 0.0 0.0 0.00 0.00 0.00 86 1015.9
20260503004804 50 153 0.0 1.0 0.00 0.00 0.00 86 1016.3
20260503004304 49 153 0.0 1.0 0.00 0.00 0.00 87 1016.3
20260503003803 49 153 0.0 1.0 0.00 0.00 0.00 87 1016.3
20260503003304 49 153 0.0 1.0 0.00 0.00 0.00 87 1016.3
20260503002804 49 153 0.0 1.0 0.00 0.00 0.00 87 1016.3
20260503002305 49 153 0.0 1.0 0.00 0.00 0.00 86 1016.3
20260503001804 49 153 0.0 1.0 0.00 0.00 0.00 86 1016.3
20260503000804 49 153 0.0 0.0 0.00 0.00 0.00 86 1016.3
20260503000304 49 153 0.0 0.0 0.00 0.00 0.00 86 1016.3
20260502235803 49 153 0.0 0.0 0.00 0.00 0.00 86 1016.3
20260502235305 49 153 0.0 0.0 0.00 0.00 0.00 86 1016.3
20260502234803 49 153 0.0 0.0 0.00 0.00 0.00 86 1016.3
20260502233303 50 153 0.0 0.0 0.00 0.00 0.00 84 1016.4
20260502232803 50 153 0.0 0.0 0.00 0.00 0.00 84 1016.4
20260502232305 50 153 0.0 0.0 0.00 0.00 0.00 84 1016.4
20260502231804 50 153 0.0 0.0 0.00 0.00 0.00 83 1016.4
20260502230303 51 153 0.0 0.0 0.00 0.00 0.00 82 1016.4
20260502225803 51 153 0.0 0.0 0.00 0.00 0.00 82 1016.4
20260502224819 51 153 0.0 1.0 0.00 0.00 0.00 82 1016.4
20260502224303 51 153 0.0 0.0 0.00 0.00 0.00 82 1016.4
20260502223804 51 153 0.0 0.0 0.00 0.00 0.00 81 1016.4
20260502223303 51 153 0.0 0.0 0.00 0.00 0.00 80 1016.3
20260502222305 52 153 0.0 0.0 0.00 0.00 0.00 80 1016.3
20260502221804 52 153 0.0 0.0 0.00 0.00 0.00 79 1016.3
20260502220810 52 153 0.0 0.0 0.00 0.00 0.00 79 1016.4
20260502220304 52 153 0.0 0.0 0.00 0.00 0.00 79 1016.4
20260502215804 52 153 0.0 0.0 0.00 0.00 0.00 79 1016.4
20260502214804 52 153 0.0 0.0 0.00 0.00 0.00 78 1016.4
20260502214304 52 153 0.0 0.0 0.00 0.00 0.00 78 1016.5
20260502213804 52 153 0.0 0.0 0.00 0.00 0.00 78 1016.5
20260502213304 53 153 0.0 0.0 0.00 0.00 0.00 77 1016.5
20260502212305 53 153 0.0 0.0 0.00 0.00 0.00 77 1016.5
20260502211804 53 153 0.0 0.0 0.00 0.00 0.00 76 1016.5
20260502211304 53 153 0.0 0.0 0.00 0.00 0.00 76 1016.5
20260502210803 54 153 0.0 0.0 0.00 0.00 0.00 75 1016.4
20260502210304 54 153 0.0 0.0 0.00 0.00 0.00 74 1016.7
20260502205804 54 153 0.0 0.0 0.00 0.00 0.00 74 1016.7
20260502205305 54 153 0.0 0.0 0.00 0.00 0.00 74 1016.7
20260502204804 54 153 0.0 0.0 0.00 0.00 0.00 74 1016.7
20260502204303 55 153 0.0 0.0 0.00 0.00 0.00 74 1016.7
20260502203803 55 153 0.0 0.0 0.00 0.00 0.00 72 1016.7
20260502203304 55 153 0.0 0.0 0.00 0.00 0.00 72 1016.7
20260502202819 55 153 0.0 0.0 0.00 0.00 0.00 72 1016.7
20260502202305 56 153 0.0 0.0 0.00 0.00 0.00 72 1016.7
20260502201304 56 153 0.0 0.0 0.00 0.00 0.00 71 1016.6
20260502200803 56 153 0.0 0.0 0.00 0.00 0.00 71 1016.6
20260502194304 58 153 0.0 0.0 0.00 0.00 0.00 65 1016.6
20260502193804 59 153 0.0 1.0 0.00 0.00 0.00 64 1016.6
20260502193303 59 153 0.0 0.0 0.00 0.00 0.00 64 1016.3
20260502192803 59 153 0.0 0.0 0.00 0.00 0.00 62 1016.3
20260502192305 60 153 0.0 0.0 0.00 0.00 0.00 63 1016.3
20260502191803 60 153 0.0 0.0 0.00 0.00 0.00 63 1016.3
20260502191303 60 153 0.0 0.0 0.00 0.00 0.00 64 1016.3
20260502190804 61 153 0.0 0.0 0.00 0.00 0.00 63 1016.3
20260502190304 61 153 0.0 0.0 0.00 0.00 0.00 62 1016.3
20260502185804 62 153 0.0 0.0 0.00 0.00 0.00 63 1016.1
20260502185305 63 153 0.0 0.0 0.00 0.00 0.00 59 1016.1
20260502184804 63 153 0.0 0.0 0.00 0.00 0.00 59 1016.1
20260502183303 66 153 0.0 0.0 0.00 0.00 0.00 55 1016.1
20260502182803 67 153 0.0 0.0 0.00 0.00 0.00 53 1016.1
20260502182305 67 153 0.0 1.0 0.00 0.00 0.00 54 1016.1
20260502181803 68 153 0.0 1.0 0.00 0.00 0.00 51 1016.1
20260502181304 69 153 0.0 0.0 0.00 0.00 0.00 50 1015.9
20260502180303 71 153 0.0 1.0 0.00 0.00 0.00 47 1016.2